Location: Cactus School
(34.5700°N, 118.0931°W)
Time: 02:12:46
(UTC-07:00)

Courier 1B - Pass Details

Date: 27 April 2024
Orbit: 962 x 1208 km, 28.3° (Epoch: 23 May)

Event Time Altitude Azimuth Distance (km) Brightness Sun altitude
Rises 21:23:05 0° 211° (SSW) 4,050 10.7 -20.8°
Reaches altitude 10° 21:26:47 10° 195° (SSW) 3,114 9.9 -21.4°
Enters shadow 21:29:03 16° 180° (S) 2,696 9.5 -21.7°
